| time (UTC) | temp F | wind direction | speed knots | gust knots | rain 1hr in | rain 24hr in | rain mn in | humidity % | barometer mb |
| 20260504081502 | 45 | 257 | 0.0 | 0.0 | 0.00 | 0.00 | 0.00 | 63 | 1015.8 |
| 20260504080109 | 45 | 257 | 0.0 | 0.9 | 0.00 | 0.00 | 0.00 | 63 | 1015.8 |
| 20260504044541 | 48 | 257 | 0.0 | 0.9 | 0.00 | 0.00 | 0.00 | 56 | 1015.7 |
| 20260504043044 | 48 | 257 | 0.0 | 0.9 | 0.00 | 0.00 | 0.00 | 56 | 1015.6 |
| 20260504041537 | 48 | 257 | 0.0 | 0.9 | 0.00 | 0.00 | 0.00 | 56 | 1015.4 |
| 20260504040039 | 48 | 257 | 0.0 | 0.9 | 0.00 | 0.00 | 0.00 | 55 | 1015.3 |
| 20260504034536 | 48 | 257 | 0.0 | 0.9 | 0.00 | 0.00 | 0.00 | 54 | 1015.2 |
| 20260504033038 | 49 | 257 | 0.0 | 0.9 | 0.00 | 0.00 | 0.00 | 54 | 1015.1 |
| 20260504031538 | 49 | 257 | 0.0 | 0.9 | 0.00 | 0.00 | 0.00 | 54 | 1015.1 |
| 20260504030035 | 50 | 257 | 0.0 | 0.9 | 0.00 | 0.00 | 0.00 | 53 | 1015.1 |
| 20260504024531 | 50 | 257 | 0.0 | 0.0 | 0.00 | 0.00 | 0.00 | 52 | 1015.0 |
| 20260504023032 | 51 | 257 | 0.0 | 0.0 | 0.00 | 0.00 | 0.00 | 50 | 1015.2 |
| 20260504021531 | 51 | 257 | 0.0 | 0.9 | 0.00 | 0.00 | 0.00 | 49 | 1015.1 |
| 20260504020031 | 52 | 257 | 0.0 | 0.0 | 0.00 | 0.00 | 0.00 | 48 | 1015.1 |
| 20260504014530 | 52 | 257 | 0.0 | 0.9 | 0.00 | 0.00 | 0.00 | 47 | 1014.9 |
| 20260504013035 | 53 | 257 | 0.0 | 0.9 | 0.00 | 0.00 | 0.00 | 45 | 1014.9 |
| 20260504011530 | 54 | 257 | 0.0 | 0.9 | 0.00 | 0.00 | 0.00 | 44 | 1014.8 |
| 20260504010029 | 55 | 257 | 0.0 | 0.0 | 0.00 | 0.00 | 0.00 | 43 | 1014.6 |
| 20260504004530 | 56 | 257 | 0.0 | 0.9 | 0.00 | 0.00 | 0.00 | 41 | 1014.5 |
| 20260504003038 | 56 | 257 | 0.0 | 0.9 | 0.00 | 0.00 | 0.00 | 40 | 1014.2 |
| 20260504001528 | 57 | 258 | 0.0 | 1.7 | 0.00 | 0.00 | 0.00 | 38 | 1014.0 |
| 20260504000050 | 58 | 257 | 0.0 | 2.6 | 0.00 | 0.00 | 0.00 | 36 | 1014.0 |
| 20260503234527 | 59 | 267 | 0.9 | 3.5 | 0.00 | 0.00 | 0.00 | 35 | 1013.7 |
| 20260503233026 | 60 | 261 | 0.9 | 3.5 | 0.00 | 0.00 | 0.00 | 34 | 1013.6 |
| 20260503231526 | 60 | 245 | 0.9 | 7.0 | 0.00 | 0.00 | 0.00 | 33 | 1013.5 |
| 20260503230026 | 61 | 279 | 1.7 | 5.2 | 0.00 | 0.00 | 0.00 | 32 | 1013.4 |
| 20260503224524 | 62 | 259 | 0.9 | 5.2 | 0.00 | 0.00 | 0.00 | 32 | 1013.4 |
| 20260503223030 | 62 | 308 | 1.7 | 6.1 | 0.00 | 0.00 | 0.00 | 31 | 1013.4 |
| 20260503221523 | 63 | 282 | 2.6 | 7.8 | 0.00 | 0.00 | 0.00 | 29 | 1013.4 |
| 20260503220023 | 63 | 250 | 0.9 | 7.8 | 0.00 | 0.00 | 0.00 | 30 | 1013.5 |
| 20260503214523 | 63 | 281 | 1.7 | 7.0 | 0.00 | 0.00 | 0.00 | 29 | 1013.5 |
| 20260503213021 | 63 | 311 | 1.7 | 7.8 | 0.00 | 0.00 | 0.00 | 29 | 1013.4 |
| 20260503211521 | 63 | 275 | 1.7 | 4.3 | 0.00 | 0.00 | 0.00 | 30 | 1013.3 |
| 20260503210020 | 63 | 294 | 0.9 | 6.1 | 0.00 | 0.00 | 0.00 | 31 | 1013.4 |
| 20260503204517 | 62 | 238 | 0.9 | 7.8 | 0.00 | 0.00 | 0.00 | 33 | 1013.5 |
| 20260503203025 | 62 | 344 | 1.7 | 4.3 | 0.00 | 0.00 | 0.00 | 30 | 1013.5 |
| 20260503201512 | 61 | 290 | 3.5 | 7.8 | 0.00 | 0.00 | 0.00 | 33 | 1013.7 |
| 20260503200012 | 60 | 269 | 0.9 | 7.0 | 0.00 | 0.00 | 0.00 | 34 | 1013.9 |
| 20260503194513 | 59 | 313 | 4.3 | 8.7 | 0.00 | 0.00 | 0.00 | 33 | 1013.8 |
| 20260503193008 | 59 | 290 | 1.7 | 7.0 | 0.00 | 0.00 | 0.00 | 34 | 1014.1 |
| 20260503191504 | 58 | 298 | 1.7 | 7.8 | 0.00 | 0.00 | 0.00 | 35 | 1014.3 |
| 20260503190005 | 57 | 312 | 1.7 | 6.1 | 0.00 | 0.00 | 0.00 | 35 | 1014.3 |
| 20260503184501 | 58 | 349 | 2.6 | 7.0 | 0.00 | 0.00 | 0.00 | 34 | 1014.7 |
| 20260503183000 | 57 | 283 | 1.7 | 8.7 | 0.00 | 0.00 | 0.00 | 35 | 1014.7 |
| 20260503181605 | 58 | 280 | 3.5 | 7.8 | 0.00 | 0.00 | 0.00 | 33 | 1014.8 |
| 20260503180106 | 56 | 319 | 0.9 | 7.8 | 0.00 | 0.00 | 0.00 | 36 | 1014.7 |
| 20260503174555 | 56 | 307 | 2.6 | 7.8 | 0.00 | 0.00 | 0.00 | 36 | 1014.8 |
| 20260503173058 | 56 | 286 | 1.7 | 8.7 | 0.00 | 0.00 | 0.00 | 35 | 1014.9 |
| 20260503171549 | 55 | 320 | 2.6 | 7.0 | 0.00 | 0.00 | 0.00 | 37 | 1015.1 |